GEFSMW_con_probscp_186.txt.gz
Probability
75 76 76 75 77 81 80 74 66 55 44 39 37 38 35 29 29 32 29 25 22 20 18 19 18 13 7 6 10 12 8 3 1 1 0 0 0 1 1 1 0 0 1
77 80 81 79 79 82 80 77 72 62 50 42 39 39 36 28 27 33 35 29 24 22 20 19 17 12 7 8 11 12 9 4 2 2 1 0 0 0 1 1 0 1 2
81 84 87 84 83 85 84 81 80 72 60 49 43 42 39 30 28 34 38 33 26 24 22 21 18 13 11 10 11 13 11 5 2 1 1 0 0 0 0 0 0 1 2
84 87 89 87 85 87 86 85 84 78 67 56 50 49 42 33 31 35 37 33 27 23 23 23 21 18 15 12 10 12 11 5 1 0 0 0 0 0 0 0 0 0 1
84 88 90 89 86 84 83 83 83 79 70 60 57 54 44 33 32 35 36 33 27 22 21 23 24 23 19 15 13 11 9 6 2 0 0 0 0 0 0 0 0 0 0
79 84 89 88 85 81 79 80 82 80 71 61 57 54 45 35 32 34 36 33 28 24 20 22 27 28 24 22 20 15 11 8 5 2 1 1 1 1 0 0 0 0 0
72 79 85 86 84 82 80 79 80 79 70 60 56 54 48 39 35 36 37 33 29 27 24 26 33 34 30 29 28 23 17 14 10 6 4 4 4 3 2 1 0 0 0
65 72 79 82 81 82 82 79 78 76 70 63 58 56 51 43 39 39 38 35 30 28 28 34 39 38 33 30 30 28 23 19 15 10 8 8 7 7 6 5 3 1 0
59 65 73 76 76 77 77 75 74 74 69 65 59 54 49 43 39 40 40 38 34 31 34 39 40 37 32 30 31 29 25 22 19 15 14 12 10 9 9 9 8 5 3
54 59 65 70 72 70 67 67 69 70 67 63 57 49 43 40 39 40 42 42 39 37 40 42 40 36 33 32 32 30 27 25 22 20 18 16 13 11 11 13 14 11 7
47 51 57 64 68 66 61 60 63 63 60 58 54 47 40 39 42 44 45 46 44 43 45 45 42 38 34 34 35 32 29 26 23 22 21 19 17 14 13 15 16 13 10
41 45 52 60 65 64 60 57 57 55 51 50 49 45 40 41 45 48 50 50 47 47 48 47 42 37 33 33 33 32 29 25 22 22 22 21 20 17 14 15 14 12 11
43 46 54 60 64 63 59 56 54 50 45 43 43 41 40 42 44 46 48 48 48 48 47 44 39 34 30 31 31 30 28 24 22 23 24 23 21 18 15 13 13 12 11
50 53 59 63 64 62 58 55 53 49 44 42 40 40 41 43 42 41 42 43 44 45 44 41 37 32 30 30 31 30 29 25 23 22 24 25 22 20 17 14 14 13 12
51 56 61 64 64 60 54 52 52 51 49 45 42 41 43 42 39 37 37 38 39 41 42 41 37 33 31 29 28 29 30 28 24 23 24 24 21 17 14 12 13 13 13
47 54 60 61 62 58 52 50 52 55 54 49 43 42 43 42 38 36 35 35 35 36 39 41 38 34 30 25 19 21 28 30 28 27 25 22 18 15 11 8 8 10 10
47 53 57 58 59 58 53 50 50 53 52 48 43 41 41 41 39 35 33 32 32 33 35 37 37 34 27 18 10 10 20 28 30 28 25 19 17 15 13 9 7 6 5
52 55 55 54 55 55 53 49 46 46 44 42 41 40 38 37 35 32 30 30 30 31 32 33 34 31 25 15 5 4 13 25 28 26 22 18 15 15 14 13 11 8 6
55 56 54 52 52 51 49 46 42 39 38 38 38 38 35 33 32 30 30 30 31 32 31 31 32 30 24 14 5 4 13 24 28 26 21 17 15 12 10 12 15 13 11
52 53 53 51 50 48 45 42 39 38 38 38 38 36 32 31 30 29 29 31 34 35 33 31 31 29 23 13 5 5 14 23 26 26 21 15 12 9 6 8 13 14 13
47 47 48 48 47 45 44 42 40 39 38 39 37 33 30 29 29 30 30 32 34 34 33 32 30 26 20 12 5 4 10 17 20 20 17 11 6 3 2 4 9 10 10
44 42 42 43 42 43 45 43 40 39 37 36 33 29 27 26 27 30 32 33 34 33 32 31 29 24 19 12 4 2 4 8 11 12 10 6 2 0 0 1 3 3 3
42 39 38 38 39 42 43 41 40 38 35 32 30 28 26 25 26 28 29 30 30 30 30 29 26 22 19 12 5 1 0 2 5 6 4 2 0 0 0 0 0 0 1
35 34 33 34 35 36 37 38 38 37 34 30 30 29 27 25 24 23 22 22 22 23 24 24 20 17 16 12 6 2 0 0 1 2 2 1 1 1 1 1 1 1 2
27 27 27 28 28 29 30 32 34 34 32 30 29 29 28 24 20 17 14 12 12 13 14 15 13 12 10 8 6 3 1 0 0 1 2 2 2 2 2 3 3 2 2
24 24 23 22 23 24 25 27 30 31 31 30 28 27 27 24 18 13 10 7 6 6 6 7 8 8 6 3 3 2 1 0 0 1 3 3 3 2 1 2 2 1 1

GEFSMW_con_probscp_192.txt.gz
Probability
47 51 54 51 43 35 33 32 24 17 15 16 17 16 12 10 9 10 11 11 10 9 7 3 1 0 0 0 0 0 0 0 0 0 0 0 0 0 0 0 0 0 0
53 57 61 58 49 41 37 33 25 19 17 17 18 17 13 11 10 10 11 12 9 8 6 4 1 0 0 0 0 0 0 0 0 0 0 0 0 0 0 0 0 0 0
62 66 69 68 61 51 44 37 28 22 19 18 18 17 15 12 11 12 13 11 8 6 5 4 1 0 0 0 0 0 0 0 0 0 0 0 0 0 0 0 0 0 0
66 69 72 73 69 59 51 44 34 25 21 18 16 16 15 13 11 11 11 8 6 5 4 3 2 1 0 0 0 0 0 0 0 0 0 0 0 0 0 0 0 0 0
67 70 73 75 71 62 57 52 42 30 22 18 15 13 12 10 8 7 7 6 5 5 4 3 2 1 0 0 0 0 0 0 0 0 0 0 0 0 0 0 0 0 0
70 72 73 75 72 65 60 58 49 35 25 19 14 10 9 7 6 5 6 5 5 5 4 3 2 1 0 1 1 1 0 0 0 0 0 0 0 0 0 0 0 0 0
70 72 73 75 75 70 64 60 51 40 30 21 14 9 7 7 6 6 5 5 5 5 5 4 3 2 1 3 4 3 2 1 1 0 0 0 0 0 0 0 0 0 0
67 69 72 74 75 72 68 62 54 43 34 26 17 10 7 6 6 6 5 5 5 5 4 3 3 3 3 4 5 5 4 3 2 1 1 0 0 0 0 0 0 0 0
65 68 70 71 71 70 66 60 53 43 36 30 23 15 9 6 5 5 6 7 8 6 5 5 4 4 4 4 4 4 4 3 3 3 2 1 0 0 0 0 0 0 0
66 67 67 66 65 63 59 53 47 40 35 31 26 19 12 9 7 6 7 9 10 8 7 7 5 4 5 6 6 4 4 4 3 3 3 2 1 1 1 0 0 0 0
64 64 61 58 57 56 53 48 43 38 34 29 24 21 16 12 8 6 6 7 8 7 6 5 5 4 6 8 8 7 6 5 4 3 3 3 3 2 2 1 1 0 0
58 57 54 52 52 51 49 45 42 39 36 31 24 21 19 14 10 7 5 5 4 4 3 3 4 4 6 9 11 10 9 9 7 6 4 4 3 3 3 3 2 1 1
51 50 50 52 53 49 43 39 38 38 36 32 25 19 17 14 11 8 5 5 3 2 3 3 4 4 6 9 11 11 11 11 11 10 7 5 4 4 3 3 3 3 2
44 44 47 52 54 49 40 34 33 34 33 32 27 20 17 15 12 9 7 6 5 4 3 3 3 4 7 9 10 11 10 10 11 11 9 7 6 4 3 3 4 3 3
42 42 44 47 49 47 40 35 34 32 30 29 27 23 18 15 12 10 8 7 6 5 4 3 2 4 7 9 9 9 9 8 8 9 10 9 6 4 3 3 4 4 4
44 44 43 44 45 45 42 38 35 31 28 26 25 22 19 16 13 11 9 7 7 7 6 5 4 6 8 8 6 7 8 8 7 8 9 9 6 3 2 3 3 3 4
43 43 42 43 44 44 42 37 34 30 26 24 23 21 19 17 14 11 10 10 10 10 10 9 8 9 9 6 3 3 6 8 8 8 8 8 8 5 3 3 2 3 3
41 40 39 40 43 42 38 36 34 31 27 24 22 21 20 18 15 13 13 13 14 15 15 13 13 12 9 5 1 1 4 6 7 8 8 8 8 6 3 3 3 3 3
41 39 35 36 38 38 37 37 35 31 27 22 20 19 19 19 17 15 16 17 18 19 18 16 14 12 10 5 1 1 2 4 5 6 6 6 6 4 2 1 3 4 4
40 35 31 30 33 34 35 35 33 29 23 19 18 17 17 18 17 16 16 18 18 18 17 15 12 11 9 5 1 1 2 2 3 3 2 2 2 1 0 0 1 2 3
36 31 26 26 28 30 31 29 27 23 19 17 15 15 15 15 15 15 15 16 16 15 13 11 9 9 8 6 2 0 1 3 3 2 1 1 0 0 0 0 0 1 1
29 27 24 23 23 25 25 22 18 16 15 14 13 12 12 13 14 14 14 13 13 11 9 8 7 7 7 6 3 1 1 2 3 3 2 1 0 0 0 0 0 0 0
23 24 23 21 20 20 19 16 13 12 12 11 10 9 9 10 11 12 11 10 10 9 7 6 6 6 6 6 4 1 0 1 1 2 2 1 0 0 0 0 0 0 0
21 22 20 17 15 15 14 12 11 12 11 9 7 6 5 5 6 7 7 7 7 7 7 6 6 6 6 6 5 3 1 0 0 1 1 0 0 0 0 0 0 0 0
19 19 16 13 12 12 11 10 10 10 9 7 5 3 3 3 3 4 4 4 5 5 5 5 6 6 6 6 5 4 2 0 0 0 0 0 0 0 0 0 0 0 0
16 16 15 12 11 11 11 9 8 8 8 6 3 2 2 3 3 3 3 4 4 4 3 4 4 4 4 4 4 2 1 0 0 0 0 0 0 0 0 0 0 0 0

GEFSMW_con_probscp_198.txt.gz
Probability
5 5 5 6 7 7 8 9 8 6 5 5 5 4 4 3 3 2 2 3 3 2 1 1 0 0 0 0 0 0 0 0 0 0 0 0 0 0 0 0 0 0 0
9 8 7 7 9 10 12 12 12 10 8 8 7 6 5 4 4 3 3 4 4 3 2 1 1 0 0 0 0 0 0 0 0 0 0 0 0 0 0 0 0 0 0
15 14 13 14 16 17 17 16 15 14 13 12 11 11 10 8 7 6 5 6 5 4 3 2 1 1 0 0 0 0 0 0 0 0 0 0 0 0 0 0 0 0 0
22 22 22 23 25 25 22 19 18 16 15 15 16 16 15 12 10 8 6 5 5 4 4 3 3 2 1 1 1 0 0 0 0 0 0 0 0 0 0 0 0 0 0
29 29 29 30 29 28 24 21 20 18 16 17 18 19 17 14 11 8 4 3 2 4 5 5 3 3 2 2 1 0 0 0 0 0 0 0 0 0 0 0 0 0 0
32 32 33 35 33 29 24 21 22 21 18 17 17 18 16 14 10 6 2 1 2 4 6 5 4 3 3 2 1 0 0 0 0 0 0 0 0 0 0 0 0 0 0
34 36 40 42 40 35 28 25 26 25 20 16 15 14 13 11 8 5 2 2 3 5 6 5 4 4 3 2 1 0 0 0 0 0 0 0 0 0 0 0 0 0 0
37 41 48 51 49 44 37 31 30 27 21 16 12 9 9 9 7 5 3 2 3 4 5 4 4 4 4 2 1 0 0 1 1 1 1 1 1 1 1 1 0 0 0
38 43 50 53 51 48 41 36 32 25 18 15 11 8 7 8 7 6 4 4 4 4 4 4 4 4 4 3 2 1 1 2 2 2 2 3 2 2 2 2 1 1 0
35 41 46 47 47 47 43 38 32 23 16 14 12 9 9 9 9 8 7 6 5 4 4 4 5 5 4 4 3 2 2 3 3 3 3 3 4 4 4 4 3 2 2
31 36 41 42 43 45 42 37 29 21 15 13 12 12 11 10 9 9 8 7 5 4 3 4 4 3 2 2 1 1 1 2 2 3 3 4 4 5 5 4 4 4 3
29 34 40 43 43 41 37 32 26 20 16 14 12 13 14 12 9 8 7 5 3 2 2 2 2 1 0 0 0 0 0 1 2 2 3 3 3 4 4 4 4 4 4
26 31 38 40 38 34 30 29 27 23 19 17 14 14 15 14 12 10 7 4 2 1 2 2 1 1 1 1 1 1 1 2 2 3 2 2 2 4 5 4 5 6 6
20 25 29 30 28 27 26 27 30 28 23 21 17 15 16 16 14 12 9 6 4 3 2 3 3 3 3 3 4 5 4 4 5 4 3 2 4 5 6 6 6 7 7
15 18 22 23 23 24 25 27 30 29 25 23 20 17 16 14 13 13 11 10 7 5 4 4 4 5 5 5 5 7 7 6 7 6 5 5 5 5 5 5 6 7 8
16 17 22 24 24 25 28 30 30 29 27 25 22 18 15 12 12 12 12 12 11 8 6 6 5 5 4 4 4 5 6 6 6 6 6 7 7 6 4 3 3 4 5
18 19 23 26 27 29 32 33 33 32 31 28 23 19 15 13 12 12 12 13 13 12 10 9 8 6 4 3 2 2 3 4 4 4 6 8 9 7 5 3 2 2 2
17 19 23 26 29 30 31 33 34 33 32 28 24 19 16 14 13 12 13 14 14 13 12 12 11 9 6 3 1 1 2 3 3 3 5 7 7 6 6 4 2 2 2
18 19 21 22 24 25 27 31 34 33 30 26 22 19 17 14 13 13 13 14 14 13 13 12 11 9 8 5 1 1 2 4 4 4 5 5 5 4 3 2 1 1 1
19 20 19 19 20 21 25 31 34 32 28 23 20 19 17 15 13 12 13 14 15 13 12 10 9 8 8 6 2 1 3 5 7 7 6 5 3 2 1 0 0 0 0
19 19 18 17 18 21 25 29 29 27 24 20 18 16 15 14 13 12 12 13 13 12 10 9 8 6 6 5 2 1 3 5 8 8 8 5 2 1 0 0 0 1 1
16 15 15 15 15 19 22 22 20 20 19 16 13 11 11 11 11 11 12 12 11 10 10 9 7 6 5 4 2 1 1 3 5 7 7 5 1 0 0 0 0 0 0
14 11 10 11 12 14 16 16 15 15 15 12 9 7 7 8 9 10 10 9 9 9 10 9 7 5 5 5 4 2 1 1 2 4 4 3 1 0 0 0 0 0 0
10 9 8 8 8 8 11 12 13 13 12 10 7 5 5 5 6 6 6 5 6 7 8 8 7 6 6 6 6 5 3 2 2 2 2 1 0 0 0 0 0 0 0
7 8 9 8 6 5 7 9 10 10 9 6 4 3 3 3 2 2 2 1 2 3 5 6 6 5 5 5 5 5 5 3 3 2 2 2 1 0 0 0 0 0 0
5 7 10 10 7 5 5 7 8 8 6 3 1 1 1 1 0 0 0 0 0 1 2 4 4 4 3 3 3 4 4 3 3 3 3 2 1 0 0 0 0 0 0

GEFSMW_con_probscp_204.txt.gz
Probability
7 9 12 14 14 14 15 15 16 16 15 12 10 9 7 6 7 8 8 8 7 6 5 3 2 3 4 4 3 2 1 0 0 0 0 0 0 0 0 0 0 0 0
10 13 15 17 17 19 20 19 18 18 17 14 12 11 9 8 8 8 9 9 9 8 7 5 4 4 6 7 6 4 2 1 0 0 0 0 0 0 0 0 0 0 0
11 15 20 24 26 27 25 22 21 21 20 17 13 12 12 11 10 10 9 9 9 9 8 7 6 7 8 9 8 6 5 3 1 2 1 0 0 0 0 0 0 0 0
8 14 24 32 35 33 29 25 23 23 23 20 15 14 14 13 12 12 10 9 9 8 7 8 8 9 10 10 8 8 8 6 3 3 3 2 1 1 1 0 0 0 0
5 12 24 35 38 35 32 30 29 28 27 23 19 17 15 14 13 13 12 10 9 8 8 8 9 11 12 10 8 8 9 8 6 4 4 4 4 4 3 2 0 0 0
7 13 23 34 39 37 35 36 37 36 32 25 22 21 18 16 16 15 15 12 10 9 9 10 11 13 12 9 7 7 7 7 6 5 5 6 7 6 6 4 2 0 0
10 16 24 33 42 44 42 43 44 41 34 27 24 23 22 20 19 19 18 15 12 11 10 11 13 14 12 8 6 8 8 7 6 6 6 7 8 8 8 7 5 2 1
12 17 24 32 40 46 47 47 45 42 37 31 26 24 24 22 21 22 20 17 14 13 12 12 13 15 13 10 8 9 10 9 8 8 7 7 8 9 11 12 11 7 4
12 17 23 30 37 44 48 46 45 45 43 36 29 25 24 23 23 23 20 18 16 15 12 12 13 15 14 10 8 9 10 10 10 10 10 9 9 10 12 15 16 14 10
16 19 25 31 36 41 45 44 44 45 44 38 30 25 23 22 22 21 19 18 17 15 13 13 13 12 11 10 8 8 8 9 10 11 11 11 10 10 13 17 19 18 16
22 23 28 33 35 38 42 44 43 43 41 36 30 24 19 18 18 17 17 17 17 16 13 11 10 8 8 9 9 8 8 8 9 10 10 10 10 12 14 17 20 21 20
25 28 33 36 37 38 42 44 44 43 41 34 28 23 18 16 15 14 13 14 15 13 11 9 7 6 8 9 9 9 9 8 9 9 9 9 12 15 17 19 22 23 23
26 30 36 39 40 41 43 44 44 43 40 34 29 26 24 21 17 13 12 13 11 9 8 8 7 7 8 9 9 10 11 11 11 12 12 12 15 19 21 23 24 26 26
28 31 37 42 45 45 43 43 43 42 41 37 33 31 30 27 22 18 17 15 12 9 8 9 9 9 11 10 11 13 14 14 15 15 15 16 17 20 22 24 26 27 28
28 32 38 43 47 47 44 43 43 43 44 41 36 34 35 32 26 23 21 18 15 14 13 13 11 11 12 10 10 14 17 18 18 18 18 18 17 15 15 17 19 21 23
29 35 39 43 46 46 45 46 47 47 46 42 38 37 38 35 29 24 23 22 21 21 20 17 14 13 12 9 6 10 16 20 21 21 20 18 15 12 9 8 8 10 13
33 38 42 46 48 46 46 50 50 48 46 43 42 40 39 35 31 28 27 27 26 25 23 21 19 16 13 7 4 5 11 17 19 19 19 18 14 12 10 8 6 7 7
39 41 44 50 52 50 51 53 50 45 43 45 45 43 39 36 34 31 30 29 27 25 23 23 23 20 14 7 3 3 7 12 13 14 15 15 13 11 11 13 13 12 11
42 41 43 50 54 54 55 55 50 43 39 41 44 44 41 39 37 33 30 30 29 27 25 24 24 22 15 8 3 3 6 8 9 10 10 10 10 8 8 11 14 14 14
44 44 45 50 53 55 56 55 49 43 39 39 43 45 44 42 39 35 32 32 31 29 26 23 21 19 15 8 3 3 6 8 9 9 8 7 7 5 4 6 9 10 11
49 50 52 53 54 55 56 54 48 44 44 43 44 44 43 40 37 35 33 32 30 26 23 20 17 15 12 8 4 3 5 8 8 7 7 6 5 2 1 3 5 6 6
52 52 53 53 52 52 50 47 43 41 43 42 40 39 38 34 33 32 31 30 28 24 20 17 13 11 9 7 5 4 3 5 6 6 6 6 4 1 0 0 1 2 2
46 46 45 44 44 43 41 38 36 35 35 35 35 33 31 30 29 29 28 28 26 23 20 16 12 10 8 7 6 5 3 2 3 5 6 5 3 1 0 0 0 1 2
36 37 35 34 35 35 33 32 32 33 32 31 31 29 27 26 26 25 23 23 22 20 18 16 12 9 8 6 6 6 4 2 2 4 5 4 3 2 2 2 2 2 3
29 28 27 28 29 30 30 29 32 34 33 29 26 23 22 21 20 19 16 14 13 12 12 12 10 8 6 4 4 5 5 3 3 4 5 6 5 5 5 5 5 5 5
24 24 24 24 27 28 29 29 32 34 32 27 21 18 18 17 15 14 11 8 7 6 6 6 7 7 4 2 2 3 4 4 3 4 6 7 7 6 6 6 6 6 5

GEFSMW_con_probscp_210.txt.gz
Probability
34 37 39 38 40 45 48 47 43 40 36 28 22 19 19 19 15 16 23 27 24 20 18 17 16 14 12 10 9 9 8 6 4 4 3 1 3 4 4 2 2 2 2
39 41 44 44 46 52 54 51 47 43 38 32 26 23 23 22 18 18 24 27 23 18 16 16 16 15 13 11 10 10 9 7 6 6 5 3 2 3 3 3 3 4 4
43 47 50 51 55 60 60 55 50 47 43 37 31 29 28 25 22 23 26 25 21 17 15 15 16 15 13 12 11 12 11 9 8 9 8 6 4 3 4 4 5 7 8
45 50 55 58 61 62 61 59 57 53 48 42 37 34 31 28 26 26 27 26 22 18 15 16 18 16 13 11 11 12 12 10 8 9 9 8 7 5 4 4 5 6 7
46 51 57 61 63 62 60 62 64 62 55 47 42 39 35 32 30 29 31 29 25 19 16 19 21 19 14 12 12 12 11 10 8 8 9 9 8 6 5 3 3 3 3
45 52 59 63 64 62 62 66 69 68 61 53 48 44 42 39 36 34 34 31 26 21 18 21 24 22 18 15 14 13 13 12 10 9 8 8 8 7 5 3 1 1 0
42 52 62 66 66 65 67 73 75 71 65 59 54 50 46 43 38 35 32 29 26 23 23 25 28 26 22 18 16 15 15 14 13 11 10 9 9 8 6 3 1 0 0
40 51 64 69 67 67 72 80 81 75 68 61 57 54 49 43 37 32 30 29 26 24 26 30 32 30 25 20 18 17 16 17 17 14 12 12 11 10 9 6 2 0 0
38 50 63 66 65 67 74 80 82 79 71 63 58 55 51 45 37 31 30 31 28 25 26 31 32 31 27 24 23 21 20 20 18 15 14 13 13 12 11 8 5 2 1
34 46 59 64 64 67 73 78 81 79 72 65 60 57 54 49 42 35 33 35 32 27 27 29 31 30 28 26 25 24 23 21 18 15 14 13 13 13 11 9 7 6 5
28 39 53 62 64 66 70 75 77 77 73 67 62 60 58 54 46 40 38 38 36 33 31 30 29 30 30 28 26 25 23 20 17 15 15 14 14 14 14 11 9 9 9
28 35 47 58 63 65 69 72 74 74 72 67 61 60 61 57 50 44 41 40 39 38 35 32 29 28 30 31 29 27 25 22 18 16 16 16 15 16 16 14 12 11 10
34 39 49 57 63 68 72 74 74 71 69 65 60 60 62 60 53 48 45 42 40 39 37 35 31 29 30 31 30 29 27 24 20 17 17 16 15 16 16 16 15 13 10
41 48 56 60 63 69 75 76 73 68 67 66 63 63 64 61 55 50 47 43 40 39 38 37 36 32 28 25 27 29 29 26 23 20 17 15 14 14 13 15 15 13 11
41 49 58 62 63 68 73 73 70 67 68 68 66 65 64 62 57 52 49 45 41 39 39 39 37 32 24 18 19 24 26 26 24 20 17 13 11 10 10 10 10 10 10
39 46 56 61 64 67 69 69 67 67 68 68 66 65 64 62 58 54 52 50 45 40 38 38 35 30 21 12 10 14 19 20 19 17 15 12 9 8 7 6 4 4 5
43 47 53 58 61 64 67 66 64 65 66 66 64 63 63 61 58 56 55 55 50 42 37 36 33 27 18 9 5 5 10 12 13 15 15 13 10 9 8 5 3 2 3
46 48 50 52 54 59 62 63 62 63 64 63 61 61 60 60 60 59 57 57 52 44 38 35 31 23 15 9 4 2 5 8 10 12 13 12 10 8 8 7 5 4 5
48 48 49 52 56 59 61 61 61 62 63 63 62 61 59 60 62 60 57 55 51 45 39 33 27 21 14 7 3 2 5 8 8 8 8 8 8 6 6 6 6 6 6
53 54 55 59 64 66 65 63 62 62 63 64 64 63 61 61 61 57 53 51 49 45 38 30 24 20 13 6 2 2 6 9 9 7 6 5 5 4 3 4 6 6 6
57 59 61 65 69 71 70 68 66 64 63 64 64 63 62 59 57 54 50 46 45 42 36 27 21 17 12 5 1 1 5 9 10 9 7 6 4 2 1 2 4 4 4
55 59 62 65 69 71 71 70 68 65 62 60 58 57 56 53 50 49 45 42 40 37 32 26 20 15 9 4 1 1 3 6 8 7 6 5 4 2 1 1 2 2 1
50 54 57 60 64 66 65 64 61 58 55 52 50 49 48 46 43 41 38 35 33 31 28 24 19 14 9 5 2 1 1 2 4 5 4 3 2 1 1 2 2 2 1
40 43 45 48 51 53 52 50 48 47 45 43 42 41 39 36 33 29 26 24 23 23 23 20 17 14 11 7 5 3 2 1 2 3 2 2 1 1 1 2 3 4 3
29 31 33 34 36 38 39 38 37 36 35 35 34 33 30 27 23 18 13 12 12 13 14 14 13 12 9 6 5 4 3 2 2 3 3 2 3 3 3 3 4 4 4
24 26 27 28 29 30 32 32 32 32 31 30 30 28 26 23 19 13 8 6 6 6 7 10 11 9 6 4 4 3 2 1 2 3 3 3 4 4 4 3 3 3 3

GEFSMW_con_probscp_216.txt.gz
Probability
19 21 24 28 30 30 28 24 18 14 12 9 8 7 4 1 0 2 5 6 8 9 9 7 7 7 7 6 4 1 1 0 0 0 0 0 0 0 0 0 0 0 0
18 20 24 29 33 33 32 30 24 17 13 10 8 7 5 3 2 3 5 6 8 9 10 9 8 8 8 7 6 4 3 2 0 0 0 0 0 0 0 0 0 0 0
18 19 23 30 37 39 37 36 30 21 15 12 11 11 9 6 5 5 5 6 7 9 11 11 11 10 9 9 8 8 7 5 2 0 0 0 0 0 0 0 0 0 0
19 21 24 30 39 43 41 40 36 27 18 15 15 16 13 9 6 6 6 5 6 8 10 12 12 11 10 10 10 10 9 8 5 2 1 0 0 0 0 0 0 0 0
22 24 27 30 36 43 44 43 41 33 23 18 17 18 16 10 8 8 7 5 4 6 9 11 12 11 9 9 9 9 9 9 7 4 3 1 0 0 0 0 0 0 0
25 28 31 32 34 40 44 44 44 38 27 21 19 19 17 13 11 11 10 7 5 6 8 9 10 9 7 7 8 8 8 8 6 4 4 2 0 0 0 0 0 0 0
29 33 38 38 37 42 47 49 48 42 32 25 21 20 17 16 15 14 11 9 8 8 8 8 8 7 6 6 6 6 6 5 3 2 2 1 0 0 0 0 0 0 0
31 36 43 45 43 45 52 55 52 47 39 31 25 21 19 18 17 13 11 10 10 10 10 9 7 6 5 5 6 5 4 3 1 0 0 0 0 0 0 1 1 1 0
33 37 43 46 45 46 51 55 53 48 43 36 29 23 20 20 19 15 11 11 11 11 10 9 7 5 5 5 5 5 4 3 1 1 1 1 0 0 1 2 2 2 1
36 38 42 45 45 46 49 51 50 47 43 38 31 24 20 21 21 18 13 10 10 10 8 7 6 5 5 5 4 3 3 2 2 3 2 1 1 1 1 3 3 3 3
38 39 41 43 43 45 49 50 48 46 43 39 32 25 21 22 22 19 12 8 7 7 6 4 4 5 5 5 3 1 1 1 1 1 1 1 1 2 3 4 4 3 3
41 40 41 42 42 45 48 49 50 49 46 41 35 28 23 22 21 17 12 7 6 5 5 3 4 6 6 4 2 1 0 0 0 0 0 0 1 4 5 6 6 5 4
43 43 44 45 45 46 45 46 49 51 48 43 37 29 24 21 19 15 11 7 5 4 4 3 3 5 5 3 2 2 1 0 0 1 1 1 2 4 6 7 7 6 5
44 44 47 49 49 48 45 43 46 50 49 45 38 30 25 22 18 13 9 5 3 2 2 1 1 2 3 2 3 4 3 2 2 3 4 3 3 3 4 5 5 5 6
44 44 43 45 47 48 46 44 45 49 52 50 43 34 27 22 17 12 7 3 2 2 2 2 2 2 2 2 4 5 4 4 5 5 5 4 3 3 2 2 2 3 4
43 41 38 38 41 45 46 45 45 48 52 52 47 39 32 25 19 13 9 5 3 4 4 5 4 4 3 3 3 3 3 5 6 5 4 3 2 2 1 0 0 1 2
43 40 36 35 36 41 44 43 44 45 48 50 48 44 38 30 23 18 14 10 8 7 7 6 6 6 5 4 2 1 1 3 4 4 3 1 1 1 0 0 1 1 1
43 40 38 37 38 40 42 43 43 45 46 46 46 46 41 32 27 24 22 19 14 11 8 7 7 6 5 4 2 1 0 1 3 3 2 1 1 0 0 0 1 2 2
41 39 38 40 41 41 43 44 45 46 45 43 43 43 39 32 28 28 27 23 19 14 10 7 7 6 5 3 2 1 0 1 2 2 2 2 1 0 0 0 1 2 3
40 38 39 42 43 43 44 44 44 44 43 42 40 38 36 33 30 27 25 22 18 13 10 7 6 6 4 3 2 1 1 1 2 2 2 1 1 0 0 0 0 1 2
39 38 38 41 42 42 43 43 41 39 38 39 38 36 36 34 30 25 22 20 16 13 11 8 6 3 2 2 2 1 1 2 2 1 1 0 0 0 0 0 0 0 1
31 31 31 33 35 37 39 40 38 34 32 33 34 34 34 31 26 22 20 18 16 14 12 10 6 2 1 1 2 1 1 2 1 0 0 0 0 0 0 0 0 0 0
20 20 21 23 25 28 31 33 33 30 27 26 28 29 27 23 20 18 16 16 15 14 12 10 7 5 2 2 2 1 0 0 0 0 0 0 0 0 0 0 0 0 1
12 13 15 16 16 18 21 23 25 25 24 20 20 22 20 17 13 11 10 10 10 10 10 9 9 7 4 2 2 2 1 1 1 1 1 1 1 1 1 1 1 1 2
8 9 11 12 10 10 12 15 17 20 20 16 14 15 15 13 9 6 5 5 5 6 6 7 8 6 4 2 2 3 3 2 2 2 2 2 2 2 2 2 2 3 3
5 6 8 9 7 6 7 11 13 16 17 14 12 12 13 11 8 5 4 3 3 4 4 5 5 4 3 2 2 3 3 3 3 3 3 3 3 3 3 3 3 3 3

GEFSMW_con_probscp_222.txt.gz
Probability
1 1 2 2 4 5 4 4 3 4 4 4 4 4 3 3 4 6 6 6 6 6 6 6 5 6 6 5 3 1 0 0 0 0 0 0 0 0 0 0 0 0 0
4 4 4 5 7 8 7 5 5 6 6 6 5 4 3 3 4 5 6 5 5 6 6 6 6 8 8 7 5 4 3 2 1 0 0 0 0 0 0 0 0 0 0
9 9 8 8 11 13 12 9 7 7 7 7 6 4 3 3 4 5 4 4 4 5 5 5 6 8 9 9 8 8 7 5 3 1 0 0 0 0 0 0 0 0 0
13 12 11 11 13 16 15 13 10 8 8 8 7 6 4 3 3 4 3 3 3 3 3 3 4 5 7 8 9 9 9 8 5 2 1 0 0 0 0 0 0 0 0
14 14 15 15 15 15 16 15 12 11 11 11 9 7 4 3 3 3 3 3 3 2 2 2 2 3 4 6 7 7 7 7 5 3 1 1 0 0 0 0 0 0 0
13 14 15 15 15 15 16 17 16 16 16 14 11 8 5 4 3 3 3 3 3 2 1 1 1 2 2 3 4 3 3 3 2 1 1 1 0 0 0 0 0 0 0
11 11 11 12 14 16 19 21 23 22 20 16 13 11 8 5 4 3 3 4 4 1 0 2 3 3 2 2 2 1 1 0 0 0 1 1 0 0 0 0 0 0 0
8 8 9 10 12 15 21 26 28 27 24 19 17 15 11 7 6 5 4 5 4 2 1 3 3 3 2 1 1 1 0 0 0 0 0 0 0 0 0 0 0 0 0
6 7 8 9 12 15 21 28 30 29 26 22 21 19 15 12 11 9 8 7 6 4 2 2 1 1 1 0 0 0 0 0 0 0 0 0 0 0 0 0 0 1 1
6 8 8 9 11 14 18 25 29 29 26 23 23 21 18 16 16 14 12 11 10 5 1 0 0 0 0 0 0 0 0 0 0 0 0 0 0 0 0 0 1 2 2
8 10 11 11 12 14 19 24 27 29 27 25 24 22 20 18 17 16 15 14 11 7 2 1 0 0 0 0 0 0 0 0 0 0 0 0 0 0 0 0 2 3 3
13 14 15 17 18 20 22 23 26 29 29 28 26 24 22 19 17 16 15 13 10 7 5 3 2 1 1 1 2 1 0 0 0 0 0 0 0 0 0 1 2 3 3
18 19 21 23 24 25 24 22 23 27 31 30 29 28 25 21 19 17 13 9 7 7 6 5 4 3 3 3 3 2 1 0 0 0 0 0 0 0 1 2 3 3 3
26 27 29 29 28 27 23 21 20 24 28 32 32 30 26 21 19 16 11 8 6 5 5 5 3 3 4 4 4 3 2 2 1 0 0 0 0 1 2 3 3 3 3
33 34 34 33 29 26 24 22 22 23 26 31 33 31 26 20 17 14 11 9 8 6 6 5 3 3 4 3 3 3 4 4 3 2 1 1 1 2 2 2 2 2 2
32 32 32 31 28 25 23 24 25 27 28 29 29 29 27 21 17 15 13 13 13 11 9 6 4 3 3 2 1 2 4 6 6 5 4 3 2 1 1 0 1 1 1
27 26 25 25 25 21 20 22 27 32 33 30 27 28 28 25 22 20 18 17 17 16 11 7 4 3 2 1 0 1 3 5 5 5 4 3 2 1 0 0 0 0 0
24 21 18 18 19 17 17 20 26 32 34 31 27 27 28 26 24 23 20 18 18 16 12 7 5 4 3 1 0 1 2 3 2 3 3 2 1 0 0 0 0 0 0
22 18 14 13 15 17 17 19 23 28 30 28 26 26 26 25 23 22 20 19 19 16 12 9 8 6 3 1 0 0 1 1 0 1 2 1 0 0 0 0 0 0 1
22 18 13 14 16 18 19 20 22 24 25 24 23 24 25 24 22 22 20 18 17 15 12 11 9 7 4 1 0 0 0 0 0 0 1 1 0 0 0 0 0 0 1
23 19 17 18 18 18 20 23 23 23 21 20 21 23 23 21 20 20 19 15 13 12 11 10 8 7 5 2 1 0 1 0 0 0 0 0 0 0 0 0 0 0 1
20 20 20 19 17 15 18 21 22 21 19 18 19 20 20 18 17 19 18 14 12 13 13 10 8 5 4 3 1 0 0 0 0 0 0 0 0 0 0 0 0 0 0
16 17 18 16 13 13 15 18 18 17 17 17 15 15 16 17 16 16 15 14 13 14 14 12 8 5 4 3 2 1 0 0 0 0 0 0 0 0 0 0 0 0 1
13 14 14 12 10 10 12 14 13 13 15 13 10 10 12 13 12 11 10 10 10 11 12 11 8 5 4 3 3 2 1 1 1 0 0 0 1 1 0 0 0 1 2
11 11 10 8 7 7 7 8 8 9 10 8 6 6 8 7 6 6 5 5 6 7 7 7 6 4 3 3 3 3 2 2 2 1 1 1 2 2 1 1 1 2 3
10 9 8 6 4 4 4 5 5 6 6 5 4 4 5 4 4 4 4 4 4 4 4 4 4 4 3 3 3 2 3 3 3 2 2 2 3 3 2 2 2 3 3

GEFSMW_con_probscp_228.txt.gz
Probability
1 2 5 6 6 8 12 14 12 11 10 8 7 6 6 5 4 4 5 6 6 7 7 6 5 6 8 9 9 9 9 8 8 7 5 4 3 3 4 3 2 1 0
1 2 5 7 7 9 12 13 13 13 12 10 7 6 6 5 4 4 5 6 6 5 6 6 4 5 7 8 9 10 10 10 9 8 6 5 3 4 3 2 1 0 0
1 4 8 10 11 11 11 12 15 17 16 12 9 7 7 6 5 5 6 6 6 4 4 5 4 5 6 7 8 10 11 12 12 10 9 7 5 4 3 1 0 0 0
1 4 10 14 14 13 12 14 19 22 21 17 13 10 8 6 5 5 5 6 6 5 4 4 6 6 7 7 8 9 11 12 12 12 11 9 8 6 3 1 0 0 0
1 4 9 14 15 13 12 14 21 25 26 24 21 16 11 7 6 6 6 6 6 6 6 7 9 10 10 9 9 10 10 10 10 11 10 9 8 7 4 1 0 1 1
1 4 9 12 14 13 11 14 21 27 30 31 29 23 16 12 10 10 9 8 8 9 10 12 13 13 12 11 10 10 9 7 7 7 6 6 6 6 4 2 1 2 3
3 6 9 11 12 13 13 15 22 29 33 34 31 27 22 19 17 15 14 13 11 12 15 17 16 14 12 10 10 9 7 6 5 5 5 5 5 5 4 3 3 4 4
4 7 9 10 11 13 16 19 25 30 33 33 31 29 27 24 23 21 19 17 16 16 18 18 16 14 11 9 8 8 7 6 5 5 5 5 3 3 3 3 3 3 3
4 6 8 9 11 14 16 21 25 28 31 32 33 33 31 29 27 26 24 21 20 20 18 16 14 11 9 7 7 7 7 7 6 6 6 5 3 2 2 3 4 4 3
6 7 9 11 12 13 15 19 22 25 30 32 31 32 33 34 34 32 28 25 23 22 19 16 13 9 6 7 8 8 8 8 7 7 7 6 4 3 3 4 5 5 5
10 11 13 15 16 17 18 20 22 26 31 32 31 31 33 35 36 35 32 28 25 24 22 20 17 12 7 7 9 9 8 8 8 9 9 8 7 6 6 5 5 6 6
17 18 19 20 23 25 25 25 27 31 35 36 35 36 37 36 37 37 34 30 25 23 25 25 23 18 13 11 10 9 8 7 9 10 11 11 11 10 9 8 7 6 7
27 28 28 27 30 33 32 31 32 34 37 40 40 41 40 39 38 38 36 32 27 24 26 27 25 21 17 14 12 9 8 8 10 12 12 12 13 12 11 9 8 7 6
34 36 37 39 41 42 40 37 36 35 37 41 42 40 40 41 41 41 40 37 30 25 25 26 25 20 18 17 15 13 12 12 13 13 12 12 12 11 10 9 9 8 7
35 39 43 47 50 48 46 44 42 40 40 42 42 41 42 43 43 44 43 39 32 26 25 26 25 22 19 17 17 16 16 17 17 14 12 11 10 9 8 7 7 8 8
37 41 45 47 49 47 46 46 47 46 46 45 44 41 42 45 45 43 40 36 32 28 27 28 28 26 21 15 13 14 16 18 17 16 15 12 10 9 7 4 3 4 6
39 41 43 43 42 42 41 41 44 46 47 46 44 41 40 43 43 38 35 33 31 30 29 29 29 28 22 12 6 7 11 14 16 17 17 14 11 10 9 6 3 3 3
39 39 39 38 38 38 38 37 39 42 45 45 43 42 40 38 37 35 32 31 30 29 30 29 28 26 20 11 4 4 7 10 13 16 17 15 11 8 8 8 6 4 3
38 36 35 34 33 35 37 37 38 40 42 42 43 42 38 33 31 31 32 32 31 29 28 28 25 22 18 11 4 4 7 10 12 14 15 13 8 5 4 5 6 4 3
34 33 32 31 31 32 34 36 36 38 39 38 39 39 35 31 30 32 34 34 32 28 25 25 23 20 16 9 3 4 8 12 13 14 12 9 5 2 1 2 3 2 2
31 31 32 32 32 31 32 34 35 36 35 35 35 36 35 33 33 35 35 32 28 25 23 23 21 18 14 8 3 3 6 10 13 13 11 7 3 1 0 1 1 1 1
32 32 33 34 33 31 31 33 35 34 33 32 34 36 36 32 30 31 31 28 25 22 22 21 18 16 13 9 5 2 2 6 9 11 9 6 3 1 0 0 0 0 0
32 32 32 32 29 27 29 32 31 30 29 29 31 33 32 27 23 22 25 24 22 21 19 18 15 13 12 10 7 3 1 2 5 7 5 3 2 1 0 0 0 0 1
29 29 29 27 23 21 23 26 26 25 24 24 24 24 22 20 17 17 16 16 15 15 15 13 11 10 9 8 6 6 4 2 3 4 3 2 1 1 1 1 1 1 2
24 25 26 23 19 16 17 20 20 20 20 18 17 15 14 13 12 10 8 6 6 7 7 6 6 6 6 5 5 5 5 4 3 3 3 3 3 3 3 2 2 3 3
22 23 23 20 16 14 15 16 16 16 16 15 13 11 10 9 7 6 4 2 1 2 2 2 2 4 4 4 4 4 4 4 4 3 3 4 5 5 4 3 3 3 3

GEFSMW_con_probscp_234.txt.gz
Probability
22 22 24 27 31 36 35 30 26 24 21 18 17 16 13 12 13 16 18 17 16 13 10 7 6 8 10 11 10 9 8 8 9 9 9 7 6 8 10 8 6 6 7
28 28 27 29 35 40 39 33 30 28 24 19 18 17 16 14 14 15 17 17 16 14 12 10 8 7 9 9 9 9 9 8 8 8 7 6 6 7 8 7 6 6 8
30 30 30 32 38 42 42 38 35 33 28 24 22 23 24 21 18 17 18 19 18 16 15 14 10 7 7 8 8 9 9 9 8 7 7 6 5 5 5 5 5 7 9
26 28 30 33 37 39 39 41 42 39 34 31 30 32 32 29 23 22 25 25 23 20 20 20 16 11 9 8 9 9 9 8 7 7 7 6 5 4 4 3 3 6 8
23 27 31 33 35 34 36 41 47 46 40 37 38 39 37 33 28 27 30 32 29 25 24 26 24 20 16 14 14 12 11 9 7 7 6 5 4 4 4 2 1 2 4
24 28 34 37 36 32 33 41 51 51 46 42 41 41 40 36 33 31 33 34 31 29 28 29 29 28 25 23 20 15 12 10 8 7 5 4 3 3 3 2 0 0 1
26 30 38 43 41 36 37 45 55 57 52 46 43 43 43 40 37 35 35 36 33 33 34 35 36 34 30 28 23 17 12 11 9 8 6 5 4 3 2 1 1 1 0
27 31 37 43 44 43 43 48 56 60 56 50 47 46 45 41 37 35 36 37 35 37 41 44 43 38 32 28 24 19 14 11 10 9 9 8 7 6 4 2 3 3 2
24 28 33 38 41 43 46 48 54 58 57 54 52 52 49 43 37 34 34 34 34 36 43 48 47 42 35 30 26 22 16 12 11 11 10 11 11 10 8 6 6 7 5
17 23 29 34 37 41 46 49 53 58 58 57 56 55 52 46 39 34 31 30 30 34 41 46 45 42 38 33 28 22 17 16 15 13 11 12 12 12 11 9 9 10 10
13 19 28 34 38 41 46 51 55 59 61 61 59 56 54 49 43 37 32 29 29 32 39 43 41 39 36 31 25 19 17 18 18 15 12 13 14 14 13 12 12 12 13
20 26 36 44 47 47 48 52 55 57 60 62 61 58 56 52 46 41 37 35 32 32 35 37 35 32 27 25 21 17 16 18 18 17 16 15 16 17 16 14 13 13 14
35 41 51 58 59 56 55 55 55 55 57 58 59 58 56 53 48 44 44 44 41 37 36 34 30 25 22 21 21 20 19 19 19 19 18 16 16 17 18 16 13 12 12
46 52 62 67 66 63 61 60 59 58 56 56 58 57 54 53 52 50 51 53 50 45 41 36 30 25 21 21 25 26 25 23 21 19 16 13 12 12 15 15 13 11 9
47 53 62 66 66 64 63 62 62 60 58 58 61 60 57 56 57 56 56 56 53 49 45 39 33 27 22 20 24 28 27 25 21 16 11 9 7 7 8 10 10 8 8
45 50 57 60 61 62 63 62 60 59 59 60 62 62 59 57 58 57 56 54 52 52 48 41 34 28 20 16 16 21 25 24 20 15 11 9 7 6 5 5 4 4 5
47 50 52 54 55 58 61 60 57 58 60 60 61 60 57 55 54 54 53 52 52 53 48 40 33 26 17 10 8 12 20 22 20 17 15 11 8 7 6 4 2 2 3
52 53 51 49 51 53 57 57 55 56 58 58 57 56 56 55 54 53 52 52 53 52 46 37 31 23 13 7 5 9 15 20 20 19 17 14 9 7 6 6 6 5 5
54 53 50 48 49 51 54 55 54 54 54 53 53 54 56 57 56 54 52 52 52 49 42 35 28 19 10 7 6 9 14 17 17 17 16 13 10 7 6 7 9 8 7
50 50 48 47 48 51 53 53 51 50 49 48 49 53 55 56 54 52 50 50 48 43 36 31 25 19 12 8 5 7 12 15 16 15 14 11 8 7 6 8 10 10 9
46 46 46 47 48 50 50 49 47 46 46 46 47 48 48 47 46 46 46 46 42 37 31 26 23 19 13 8 5 5 9 12 14 14 12 9 6 4 4 5 7 8 8
42 44 45 46 48 48 46 45 46 46 46 46 45 42 40 37 35 37 39 38 35 31 28 24 20 17 13 9 5 4 5 7 9 10 9 7 4 1 1 2 3 4 5
41 43 43 43 44 44 42 42 43 44 44 42 39 37 35 30 27 30 31 31 29 26 25 22 18 15 13 10 7 4 3 3 4 5 5 4 2 1 0 1 1 1 2
39 40 40 39 38 37 35 33 35 36 37 35 32 31 29 25 23 24 24 23 23 21 21 19 16 14 12 8 5 4 3 2 2 3 4 3 3 2 2 2 2 2 3
37 36 36 35 33 31 28 27 27 27 28 29 28 26 23 18 16 15 15 14 13 12 13 13 11 9 7 4 2 1 1 1 2 3 4 5 5 5 5 5 5 5 4
35 34 33 32 31 29 27 25 24 23 24 25 26 24 19 14 11 9 8 7 6 5 5 6 5 4 3 1 0 0 0 0 1 3 4 6 6 6 6 6 6 6 6

GEFSMW_con_probscp_240.txt.gz
Probability
10 12 15 18 18 14 10 10 10 9 9 12 10 6 3 3 3 4 6 8 7 7 7 6 5 4 3 2 1 1 1 0 0 0 0 0 0 0 0 0 0 0 0
11 12 15 19 20 17 13 12 12 11 11 12 9 5 2 2 3 4 6 7 7 7 7 6 5 4 4 3 2 2 2 1 0 0 0 0 0 0 0 0 0 0 0
10 11 15 19 22 21 19 17 15 13 12 11 8 6 3 2 3 4 6 7 6 6 6 6 6 4 4 3 3 2 3 2 1 0 0 0 0 0 0 0 0 0 0
8 10 13 18 22 25 25 23 20 15 12 9 9 8 6 3 3 4 6 6 6 6 7 8 7 5 5 4 3 2 2 2 1 0 0 0 0 0 0 0 0 0 0
8 9 12 16 21 26 28 28 25 19 14 11 12 12 9 7 7 8 9 8 8 8 10 11 9 8 6 5 3 2 1 1 0 0 0 0 0 0 0 0 0 0 0
10 10 12 17 24 28 32 32 29 24 20 18 18 17 15 13 14 14 13 12 10 10 11 11 11 10 8 6 5 3 1 0 0 0 0 0 0 0 0 0 0 0 0
13 13 15 21 26 32 35 35 31 28 26 25 24 23 20 19 18 18 17 16 14 12 11 10 11 11 10 8 7 5 2 0 0 0 0 0 0 0 0 0 0 0 0
16 16 19 23 29 33 36 36 35 32 29 27 27 26 23 20 19 19 19 19 18 15 12 11 12 11 9 8 7 6 2 0 0 0 0 0 0 0 0 0 0 0 0
19 19 21 26 30 34 37 38 37 36 31 29 28 27 25 23 22 22 21 20 20 19 17 16 14 10 7 6 6 5 2 0 0 0 0 0 1 1 0 0 1 1 1
20 21 24 28 31 33 36 38 39 39 35 31 29 27 25 24 24 23 21 20 19 20 21 19 15 11 9 8 8 6 3 1 1 0 0 1 2 1 0 0 1 2 2
22 23 28 31 31 31 34 37 40 41 40 38 33 29 25 23 23 22 21 20 21 21 21 19 15 12 11 11 10 8 6 4 2 2 2 2 2 1 0 0 1 2 2
26 27 32 36 36 36 38 40 41 43 45 45 41 35 29 26 24 22 20 20 21 21 19 16 13 11 11 11 10 9 8 8 6 5 5 3 1 0 0 0 1 1 1
32 34 37 41 44 45 44 43 43 44 46 49 48 42 37 34 29 24 21 20 18 17 15 13 11 10 10 11 11 11 11 11 9 9 8 6 4 2 1 1 1 0 0
36 37 38 40 43 45 43 42 41 41 42 47 50 49 45 42 36 30 25 21 18 14 11 9 8 10 13 14 15 14 13 12 11 10 10 9 8 6 4 2 1 0 1
35 34 34 35 37 39 39 37 34 34 36 40 45 47 45 43 40 36 30 25 20 16 12 9 9 12 16 16 16 15 13 11 9 9 9 9 9 7 5 2 1 1 2
32 32 33 34 34 35 35 34 31 32 33 36 38 40 40 39 39 40 36 29 23 19 15 13 11 13 14 13 11 10 8 7 6 6 7 7 6 5 4 2 1 1 2
34 35 36 35 32 31 32 35 37 36 36 37 38 40 39 38 39 41 39 33 26 20 17 15 13 12 12 9 6 4 4 3 3 5 6 6 4 4 3 2 1 1 1
36 38 38 34 32 32 34 37 39 38 36 36 37 38 39 39 39 39 38 34 28 22 17 14 13 13 11 8 4 2 2 3 4 6 7 6 5 4 3 3 2 2 1
38 39 38 36 36 36 36 36 35 33 30 30 32 32 33 35 36 35 35 33 29 24 17 14 13 12 9 5 4 3 3 5 6 7 7 6 4 3 3 3 2 2 2
39 38 37 37 36 34 33 31 29 25 23 24 25 25 26 28 29 30 30 30 28 24 17 12 9 8 6 3 3 3 4 5 6 5 6 5 4 3 3 2 1 1 2
39 38 36 34 31 28 27 27 26 23 21 20 20 21 23 24 24 25 26 26 24 21 16 10 5 4 3 1 1 2 3 4 4 4 4 5 4 3 2 1 0 1 2
35 34 31 27 25 24 24 24 23 22 19 17 17 18 21 22 22 23 23 22 20 18 15 8 4 2 1 0 1 1 1 2 2 2 3 3 3 2 1 0 0 0 1
28 27 26 23 21 20 21 20 18 15 14 14 15 17 18 19 19 19 19 17 16 16 13 7 4 3 2 0 0 0 0 0 1 1 1 1 1 1 0 0 0 0 0
25 25 25 22 18 16 15 15 12 10 10 11 12 12 13 13 13 14 13 12 13 12 10 6 5 4 2 1 0 0 0 0 0 0 0 0 0 0 0 1 1 1 1
25 25 25 21 16 12 11 10 8 8 9 10 10 8 7 7 7 8 8 8 8 7 6 5 5 4 2 1 0 0 0 0 0 0 0 0 0 0 1 2 2 2 2
24 24 23 20 13 9 9 7 6 7 8 9 9 7 4 4 5 6 6 5 4 4 3 3 4 4 2 0 0 0 0 0 0 0 0 0 0 0 1 2 3 3 3

GEFSMW_con_probscp_246.txt.gz
Probability
1 2 3 4 4 3 3 4 4 3 3 3 3 3 2 2 2 2 2 1 2 2 1 1 0 0 0 0 0 0 0 0 0 0 0 1 0 0 0 0 0 0 0
2 3 4 5 4 3 3 4 4 3 1 2 2 2 1 1 1 2 2 2 3 3 3 1 0 0 0 0 0 0 1 1 1 1 1 1 0 0 0 0 0 0 0
3 3 4 5 5 4 4 3 2 1 1 1 1 1 0 0 0 1 1 1 2 2 2 1 0 1 1 1 1 1 2 2 2 2 2 2 1 0 0 0 0 0 0
3 3 3 4 5 5 4 2 1 1 2 2 1 1 0 0 0 0 0 0 0 1 1 1 1 2 3 2 3 3 3 3 3 3 3 2 1 0 0 0 0 0 0
4 3 3 3 4 5 4 3 2 2 3 3 3 2 1 0 0 0 0 1 1 1 2 2 3 5 4 3 3 3 3 3 3 3 3 2 1 0 0 0 0 0 0
5 4 4 4 4 4 5 5 2 1 2 3 3 3 2 1 1 1 1 2 4 5 5 6 6 6 4 2 2 2 2 3 3 3 2 1 0 0 0 0 0 0 0
7 6 5 6 6 6 7 6 3 1 1 2 3 3 3 4 5 5 4 4 5 7 9 9 8 6 3 1 1 2 2 2 2 2 1 1 0 0 0 0 0 0 0
10 8 6 6 7 7 9 10 7 4 2 2 3 3 4 7 9 9 8 7 7 9 11 11 9 7 4 2 2 3 3 2 1 1 1 1 0 0 0 0 1 1 0
12 9 7 6 7 9 13 15 12 8 5 4 3 4 5 7 9 10 11 11 11 11 12 12 12 10 7 5 4 4 3 2 2 2 2 2 1 1 0 1 2 2 1
12 10 7 6 9 14 18 19 16 12 9 7 5 5 6 7 8 10 13 14 15 15 14 14 12 11 9 6 4 4 3 2 2 1 2 2 2 1 1 2 3 3 2
12 10 9 9 12 17 22 23 21 17 16 13 9 8 9 9 9 12 15 16 17 18 17 15 12 9 7 4 3 3 3 3 2 1 1 2 2 2 2 3 3 3 2
11 11 12 13 14 18 23 26 25 22 22 19 14 12 12 11 12 13 15 16 17 18 18 15 11 6 3 2 2 3 3 3 2 2 2 2 2 2 2 2 3 3 3
12 14 16 17 18 20 24 26 26 25 24 22 18 16 15 14 14 15 16 16 16 16 15 13 8 4 4 5 5 4 3 1 1 1 3 4 3 2 2 2 3 3 3
16 17 20 22 22 22 24 25 25 24 24 22 20 20 20 20 20 19 19 18 15 14 12 9 6 4 5 7 7 6 4 2 1 0 2 4 4 2 2 4 5 3 2
19 20 24 26 25 23 23 24 24 23 21 20 20 23 25 27 27 26 24 21 16 13 10 8 6 5 6 6 7 7 6 5 3 1 1 2 2 1 2 4 4 3 3
25 25 27 28 26 22 21 21 21 20 19 19 21 24 27 29 30 30 28 23 17 14 12 10 8 7 7 6 6 7 8 7 4 3 2 2 1 1 1 1 2 2 2
32 31 30 29 27 22 19 18 17 18 19 20 21 23 23 24 25 25 24 21 17 15 14 13 11 10 8 6 4 4 6 6 6 6 6 5 4 2 1 0 0 1 1
32 33 31 29 26 21 17 16 16 19 21 20 20 19 18 18 18 19 18 18 16 15 15 15 14 11 8 5 2 2 3 6 8 9 8 5 4 2 1 0 0 0 1
27 29 29 27 24 21 18 16 16 17 19 19 17 17 16 15 14 15 16 17 16 15 15 15 14 11 7 4 2 1 4 7 8 8 6 3 1 0 0 0 0 0 1
24 24 24 23 21 19 18 16 14 14 15 16 15 15 15 15 13 14 16 17 17 15 14 13 12 9 5 3 1 1 4 6 7 6 4 2 0 0 0 0 0 0 0
23 22 20 18 17 15 14 12 11 10 11 11 11 12 13 14 14 15 16 16 16 15 13 11 9 5 2 1 0 1 2 5 6 5 3 2 1 0 0 0 0 0 0
19 18 17 14 12 10 9 7 7 7 7 7 7 8 10 13 15 16 16 16 15 14 13 11 7 3 1 0 0 0 1 2 4 3 2 1 1 0 0 0 0 0 0
16 15 16 14 10 7 6 5 5 4 4 5 6 7 7 9 11 13 14 14 13 12 12 10 7 3 2 0 0 0 0 0 1 1 0 0 0 0 0 0 0 1 1
16 17 18 16 11 7 6 5 5 4 4 5 6 6 6 6 7 8 10 10 10 10 10 9 7 6 4 2 0 0 0 0 0 0 0 0 0 0 0 0 0 1 2
17 18 19 16 12 9 6 5 5 5 4 4 5 5 5 4 4 4 5 5 6 6 7 7 7 6 5 3 1 0 0 0 0 0 0 0 0 0 0 0 0 1 2
17 18 17 14 12 9 6 4 5 6 5 4 5 5 4 4 3 3 3 2 4 4 5 5 6 5 4 3 1 0 0 0 0 0 0 0 0 0 0 0 0 0 1

GEFSMW_con_probscp_252.txt.gz
Probability
3 2 2 3 5 7 7 6 4 4 5 4 3 4 4 2 1 1 3 4 3 2 1 2 3 3 3 4 4 4 3 3 3 3 2 1 0 0 1 2 3 2 1
3 2 1 2 3 6 7 6 5 5 5 4 3 3 2 2 1 1 3 4 3 3 3 3 4 4 4 4 5 4 4 3 3 3 2 1 0 0 0 1 2 2 1
2 2 1 1 1 3 5 5 6 7 6 4 2 1 1 1 1 1 3 4 4 4 6 6 6 6 6 6 6 5 4 3 2 3 3 2 1 0 0 0 1 1 0
2 2 1 0 0 1 2 4 6 8 8 7 5 3 3 2 1 1 2 3 4 6 8 8 8 7 7 6 6 4 3 1 1 3 4 3 3 1 0 0 0 0 0
3 3 3 2 0 1 3 6 8 10 11 11 9 8 7 5 4 3 3 4 6 8 8 10 10 9 7 7 6 5 2 1 2 4 6 6 5 3 1 0 0 0 0
5 5 6 5 3 3 6 9 11 14 15 13 11 10 10 9 8 8 8 8 9 10 10 10 10 10 9 9 8 7 5 4 5 7 8 7 6 5 3 1 0 0 0
8 9 10 9 7 7 9 12 15 17 17 14 11 11 11 10 10 11 12 12 11 11 11 10 11 12 12 11 11 10 8 9 10 10 9 7 6 5 3 1 0 0 0
10 11 13 12 10 9 10 13 16 17 16 14 13 13 13 11 11 13 14 14 12 11 11 12 13 14 15 15 14 12 11 12 12 11 8 6 6 5 4 2 1 1 1
11 12 14 14 11 9 9 11 14 16 15 15 14 14 14 13 13 14 14 13 11 11 12 14 15 16 16 16 15 14 11 11 12 10 7 5 5 5 6 6 4 3 3
10 11 12 13 11 8 7 8 12 17 20 20 18 16 16 15 14 14 14 12 10 11 13 14 14 15 15 16 16 13 9 7 8 7 5 4 5 6 9 10 8 6 5
11 10 11 12 12 8 6 7 13 20 23 23 20 19 19 17 14 14 14 12 11 12 13 13 13 14 14 17 17 13 8 6 5 5 6 7 9 10 12 12 11 9 8
16 15 16 17 17 14 11 12 15 20 22 22 22 22 23 19 15 14 14 13 13 14 15 15 15 15 15 17 17 14 11 8 5 6 10 12 14 15 14 13 12 11 11
26 27 28 28 26 23 18 16 16 18 23 25 26 25 25 21 17 15 15 16 17 18 19 19 18 17 17 16 16 15 13 10 8 11 16 18 18 18 16 12 11 12 13
35 38 40 36 32 29 26 22 19 22 30 33 31 29 26 23 18 15 17 20 21 23 22 21 19 19 18 17 17 16 14 12 10 13 18 19 17 17 14 10 10 13 14
40 42 42 38 34 34 33 30 27 31 38 39 35 32 28 25 20 17 20 23 25 24 23 22 22 21 19 18 18 18 15 13 13 14 16 16 14 11 8 6 7 10 12
40 41 41 38 38 41 40 38 37 38 42 42 39 34 31 28 25 23 26 30 31 28 25 24 24 22 19 16 15 15 16 16 14 14 14 13 11 7 4 3 3 5 7
42 42 42 40 42 45 45 44 44 44 45 46 43 37 34 32 29 27 31 35 36 34 30 27 24 23 18 13 9 9 15 18 17 15 15 14 10 7 5 4 3 2 3
47 45 43 42 43 46 47 47 48 49 49 49 45 39 35 33 30 28 30 32 34 34 32 29 27 25 18 9 3 5 13 19 18 17 15 13 9 6 6 5 4 4 3
47 46 45 42 41 43 46 47 48 49 49 48 44 40 36 33 30 28 27 27 30 30 29 28 27 26 19 8 1 4 12 18 18 16 13 11 8 5 4 5 5 4 4
45 46 46 43 41 41 44 45 44 44 43 41 40 38 37 33 29 26 24 25 27 28 26 25 24 23 19 9 2 4 11 18 18 15 11 8 6 4 3 4 5 4 3
44 44 44 43 42 43 43 41 39 38 35 32 31 33 33 30 26 24 23 23 24 24 23 22 21 19 17 10 3 2 9 16 17 14 10 7 3 1 1 2 4 3 2
41 40 40 40 42 43 42 38 34 31 28 25 25 26 27 25 22 21 21 22 22 20 20 20 19 18 15 9 3 1 4 9 12 12 9 4 1 0 0 0 1 1 1
35 34 34 36 38 38 37 33 28 25 22 21 21 22 22 21 19 18 19 20 19 18 18 17 17 17 14 10 5 2 1 2 5 7 5 2 0 0 0 0 0 0 0
34 32 31 32 32 31 29 25 21 18 18 18 19 19 18 18 17 17 16 16 16 17 16 16 16 15 14 11 7 4 2 2 3 4 3 1 0 0 0 0 0 0 0
32 30 28 27 26 25 23 20 17 15 16 17 18 17 16 16 16 14 12 11 11 11 11 11 12 12 11 9 6 4 3 3 3 3 3 2 1 0 1 2 1 1 0
27 27 26 24 21 19 20 19 17 15 15 16 17 16 16 16 15 12 8 7 7 6 6 6 7 8 7 6 4 3 2 2 2 3 3 3 2 1 2 3 2 2 1

GEFSMW_con_probscp_258.txt.gz
Probability
10 8 3 3 12 24 30 28 23 19 17 15 13 12 12 12 14 16 16 15 14 13 13 13 13 13 13 13 11 7 3 2 2 1 1 1 1 2 3 3 3 1 0
12 11 7 6 13 24 28 26 21 19 18 16 13 11 10 11 13 16 18 18 15 14 12 13 13 14 15 15 14 10 7 5 5 4 2 1 0 1 1 2 2 1 0
15 15 14 12 16 22 25 25 24 23 21 17 13 10 9 10 12 17 22 22 18 15 14 14 15 15 16 17 16 14 12 11 10 8 7 4 2 0 0 0 1 2 2
16 17 17 17 17 20 24 30 33 31 26 19 14 12 12 12 13 17 21 23 21 18 17 17 17 16 16 16 16 15 16 15 12 11 11 9 5 2 1 0 1 3 4
16 17 18 17 16 18 26 36 41 38 31 24 20 18 16 15 15 16 17 19 22 21 21 21 19 18 18 18 17 16 16 15 12 11 10 10 8 5 3 2 2 3 3
17 18 20 20 18 18 25 36 44 44 36 28 24 22 20 18 17 16 16 19 22 23 22 21 20 21 21 21 19 17 16 15 13 11 10 9 8 8 7 5 2 1 1
21 22 25 25 21 19 23 35 47 48 40 29 23 22 22 20 16 15 17 21 23 22 21 22 23 24 24 22 19 18 17 16 14 13 11 9 7 8 7 6 3 1 0
24 26 27 26 22 21 25 35 46 49 41 30 25 23 22 21 17 16 19 21 21 21 22 24 26 26 25 21 19 19 17 16 14 14 14 11 7 6 7 6 4 2 1
23 25 26 23 22 25 29 36 43 46 40 32 29 27 27 26 23 22 22 21 19 19 21 25 26 26 25 24 23 21 17 15 13 12 13 12 7 5 6 6 6 5 3
20 21 22 22 23 29 33 37 42 44 40 36 33 32 32 32 30 28 26 24 21 19 20 24 26 26 26 27 27 24 19 15 14 12 11 11 7 4 4 5 8 8 8
20 21 22 23 27 32 38 42 46 47 45 42 38 36 36 37 36 32 29 27 25 23 23 25 27 29 28 28 28 24 20 19 18 15 12 10 8 5 4 6 9 11 12
21 24 27 29 33 39 44 49 51 51 50 47 43 41 39 39 37 32 29 28 28 27 25 25 27 30 30 29 26 23 21 20 19 17 15 11 8 8 7 7 11 13 13
28 33 38 40 43 46 51 54 54 52 50 48 47 47 46 43 38 32 29 29 28 27 25 25 27 29 29 26 23 21 20 20 18 18 16 12 9 11 11 10 12 13 13
40 46 52 53 53 53 54 55 52 51 51 50 49 51 51 48 42 36 33 31 29 27 26 26 27 27 25 22 20 18 19 19 18 18 17 14 12 11 11 12 13 14 14
49 56 61 61 58 58 57 55 54 54 54 54 52 52 52 50 46 42 39 35 31 28 27 26 26 25 21 17 15 16 16 18 18 17 16 14 12 10 9 10 12 13 14
53 58 63 63 64 64 62 59 59 61 61 60 57 55 52 50 48 44 40 37 33 30 28 26 24 23 19 14 11 12 15 19 20 19 17 14 13 11 8 6 6 8 9
56 60 63 65 68 69 67 65 65 67 68 66 63 59 56 53 48 43 40 38 36 33 31 28 26 24 18 12 9 9 14 20 22 23 22 18 16 14 10 6 3 4 5
58 60 63 66 68 69 69 68 68 69 70 67 63 61 60 56 49 44 41 41 40 38 35 32 30 26 18 11 9 9 13 18 21 24 24 22 20 16 11 7 5 5 4
60 60 60 63 65 66 66 66 65 65 65 63 60 58 57 53 48 44 43 42 42 39 35 31 30 26 17 11 7 8 12 18 21 23 22 22 19 13 7 6 6 6 6
60 59 59 60 62 64 64 63 61 60 59 57 54 52 52 50 46 44 43 41 40 38 33 29 28 25 19 11 6 7 14 19 21 21 20 17 13 7 3 3 5 6 6
57 58 58 59 61 62 62 61 60 57 54 49 46 45 46 45 41 41 41 38 36 34 31 29 27 25 21 14 6 5 11 17 19 19 17 13 7 3 1 1 2 3 4
56 57 58 58 59 60 60 59 57 53 48 43 39 37 39 37 34 35 34 33 31 29 29 28 26 25 23 17 8 4 5 10 13 14 12 8 3 1 0 0 0 0 1
55 55 55 54 54 55 55 54 51 46 43 39 35 32 31 30 30 29 28 28 27 26 26 26 25 25 25 19 10 4 2 3 5 6 5 3 1 0 0 0 0 0 0
49 48 48 49 49 49 48 46 44 41 38 35 31 27 24 24 24 25 25 24 22 22 23 24 24 24 24 18 10 5 3 2 2 2 1 1 1 1 1 1 0 0 1
43 42 42 42 43 43 42 40 40 39 36 32 27 22 19 17 18 19 19 17 15 14 16 18 18 18 16 11 7 5 4 4 3 2 2 2 3 3 3 3 2 2 2
43 41 39 37 38 39 39 38 38 38 35 30 24 20 17 15 15 15 13 11 9 8 9 12 12 10 8 6 4 4 4 4 4 3 3 4 5 5 5 5 5 4 4

GEFSMW_con_probscp_264.txt.gz
Probability
7 7 7 7 6 4 2 1 0 0 1 0 1 2 2 2 3 4 4 5 6 7 6 5 3 2 2 1 1 1 1 0 0 0 0 0 0 0 0 0 0 0 0
8 8 9 9 8 5 2 1 0 0 1 1 1 1 1 1 2 3 3 4 5 5 6 6 5 4 3 2 1 1 0 0 0 0 0 0 0 0 0 0 0 0 0
8 10 12 12 10 7 3 2 1 2 1 1 2 1 0 0 1 2 3 4 6 7 7 6 6 5 4 3 2 1 0 0 0 0 0 0 0 0 0 0 0 0 0
8 9 11 13 12 10 7 6 5 5 4 4 4 3 1 0 1 2 3 6 8 10 10 7 5 4 3 3 2 1 0 0 0 0 0 0 0 0 0 0 0 0 0
7 7 8 11 13 12 11 11 9 8 7 7 6 4 2 1 3 4 4 5 8 10 10 8 6 4 3 2 2 1 0 1 1 1 0 0 0 0 0 0 0 0 0
7 7 7 10 13 13 12 13 11 8 6 7 6 5 3 4 5 6 6 6 7 8 7 7 5 5 4 2 1 0 1 2 2 2 1 0 0 1 1 1 0 0 0
7 9 10 11 11 11 12 14 12 8 5 6 7 7 7 7 7 8 8 9 8 6 5 5 5 4 3 1 0 1 2 3 4 3 2 1 1 2 2 2 1 0 0
9 11 12 10 9 10 14 17 15 10 8 8 10 11 11 10 9 9 10 9 6 4 4 4 3 3 2 1 1 2 3 4 4 3 3 2 2 3 3 3 1 0 0
12 13 13 12 10 11 15 19 18 15 14 14 15 15 14 12 11 11 10 6 4 3 3 2 2 2 3 3 3 3 3 3 2 1 2 1 1 2 3 2 2 1 1
14 15 15 13 13 14 15 19 22 21 19 19 19 17 15 14 14 15 11 5 2 2 1 1 2 3 4 5 5 3 2 1 0 0 0 0 0 1 2 1 1 2 2
13 13 13 14 15 16 17 20 23 23 21 22 21 19 17 17 17 17 13 7 3 2 2 2 3 4 5 6 6 5 3 1 1 0 0 0 0 0 0 0 1 2 3
14 13 14 16 18 19 20 22 22 23 24 25 25 23 20 18 16 15 12 8 5 5 4 3 3 4 4 5 7 7 6 4 2 1 1 1 0 0 0 0 1 2 3
22 18 16 18 20 22 24 24 24 26 28 30 31 28 22 17 15 13 11 8 7 7 6 5 5 4 4 5 7 9 8 6 4 3 3 3 2 1 0 0 0 1 2
29 25 21 22 23 25 27 28 29 31 34 36 36 31 24 20 17 13 11 9 8 8 7 7 7 7 7 6 8 8 7 5 3 3 4 5 4 2 1 0 0 0 1
32 30 28 26 27 30 32 33 35 38 40 40 38 32 26 22 18 14 11 10 8 7 7 8 9 10 9 7 5 4 4 3 3 3 4 4 4 2 2 1 1 0 0
37 36 35 34 32 34 37 40 43 43 42 40 37 31 25 22 20 17 15 12 10 9 8 9 10 8 7 4 2 1 1 2 3 3 4 5 5 4 4 3 1 0 0
42 42 42 40 37 38 43 46 48 47 43 39 35 31 27 25 24 23 21 18 16 13 10 9 8 6 4 3 1 0 1 2 3 4 5 6 7 6 5 4 1 0 0
43 42 42 42 41 42 46 49 50 49 46 41 36 32 30 29 28 26 25 23 22 18 12 10 9 7 4 3 1 0 1 2 2 3 4 6 6 6 4 3 2 1 0
40 39 41 44 46 46 48 51 52 50 47 41 37 33 29 28 27 26 25 24 22 20 17 14 12 9 6 3 1 1 1 1 1 1 2 4 4 3 2 1 1 1 0
41 41 44 48 50 49 48 50 50 48 43 39 35 30 25 23 22 23 23 22 21 21 20 18 14 11 8 5 3 2 3 2 1 0 0 1 1 1 0 0 1 0 0
42 43 45 49 50 49 47 46 45 42 38 34 30 26 21 18 18 20 20 19 19 19 18 16 13 10 9 7 4 3 3 3 2 1 0 0 0 0 0 0 1 0 0
42 42 42 44 45 46 45 42 39 35 29 25 24 22 18 16 16 17 18 17 16 16 15 13 11 9 9 8 5 3 3 3 3 2 1 0 0 0 0 0 0 0 0
38 40 40 41 41 42 41 37 32 25 19 17 17 15 14 13 14 14 15 15 15 15 14 13 11 10 9 9 6 3 2 2 2 2 1 0 0 0 0 0 0 0 0
33 34 36 37 37 36 35 31 24 19 15 13 11 9 9 11 12 11 11 12 13 14 15 14 13 11 10 9 8 5 3 2 1 1 0 0 0 0 0 1 1 1 1
25 26 27 28 28 29 28 24 19 16 14 11 8 6 6 9 10 9 8 9 10 11 12 13 13 12 11 9 8 6 4 2 2 1 1 1 1 0 0 1 2 2 2
21 21 21 21 22 24 24 19 16 16 14 10 6 6 6 7 9 8 7 7 8 9 10 11 12 13 12 9 6 4 2 2 2 1 2 2 2 1 0 1 1 1 1

GEFSMW_con_probscp_270.txt.gz
Probability
3 2 2 2 1 1 0 0 0 0 0 0 0 0 0 0 0 1 1 1 0 0 1 0 0 0 1 0 0 0 0 0 0 0 0 0 0 0 0 0 0 0 0
2 2 1 2 2 1 0 0 0 0 0 0 0 0 0 0 0 0 0 0 0 1 2 2 1 1 1 0 0 0 0 0 0 0 0 0 0 0 0 0 0 0 0
2 1 2 2 2 1 0 0 0 1 1 0 0 0 0 0 0 0 0 0 0 2 4 5 4 2 1 0 0 0 1 0 0 0 0 0 0 0 0 0 0 0 0
2 2 3 3 3 2 1 0 1 2 2 1 1 0 0 0 0 0 0 0 0 1 3 4 4 2 0 0 0 0 0 0 0 0 0 0 0 0 0 0 0 0 0
2 2 3 4 4 4 3 1 1 2 3 3 2 1 1 0 0 0 0 0 0 0 1 1 1 0 0 0 0 0 0 0 0 0 0 0 0 0 0 0 0 0 0
3 3 3 5 6 6 5 3 1 2 3 3 3 3 2 1 1 1 1 0 1 1 1 0 0 0 0 0 0 0 0 0 0 0 0 0 0 0 0 0 0 0 0
4 3 3 5 7 7 5 3 1 1 3 3 4 4 4 3 2 2 2 1 2 2 2 1 0 0 0 0 0 0 0 0 0 0 0 0 0 0 0 0 0 0 0
4 3 3 4 6 6 5 2 1 1 3 4 4 5 5 4 3 3 2 1 2 2 2 1 0 0 0 0 0 0 0 0 0 0 0 0 0 0 0 0 0 0 0
3 2 1 1 3 4 5 4 4 4 4 4 4 4 3 3 2 1 1 1 1 2 1 1 2 1 1 0 0 0 0 0 0 0 0 0 0 0 0 0 0 0 1
4 2 1 1 2 3 4 6 7 7 6 5 4 3 2 2 2 2 3 3 3 2 2 3 3 3 2 1 1 1 1 0 0 0 0 0 0 0 0 0 1 1 2
3 2 2 3 3 4 3 5 8 8 6 4 3 2 2 3 4 5 5 5 4 3 3 3 3 4 4 3 2 2 1 0 0 0 0 1 1 0 0 0 1 2 3
2 2 3 5 6 6 5 5 7 7 4 2 1 1 2 3 5 5 5 4 4 4 4 4 4 4 4 3 3 2 1 0 0 1 1 2 1 0 0 0 1 2 3
3 3 4 6 7 7 7 8 7 7 4 3 2 3 4 4 3 3 3 4 4 4 5 5 5 5 4 3 3 1 0 0 1 2 2 2 1 0 0 0 1 3 4
6 6 6 7 9 9 10 11 10 7 4 4 5 7 7 6 5 4 4 5 4 4 5 6 6 5 4 4 2 1 1 1 1 2 2 1 0 0 1 2 4 6 6
9 9 10 10 11 12 11 11 10 8 8 8 8 9 9 9 8 8 7 6 6 6 5 5 4 4 4 4 2 2 2 2 1 1 1 0 0 0 1 3 5 7 8
11 13 13 13 12 13 13 13 13 14 16 15 13 11 10 11 11 10 9 8 8 8 6 5 4 3 3 3 3 3 4 3 3 3 2 1 1 1 1 2 3 5 6
13 15 15 13 13 16 18 20 23 26 25 22 17 14 14 14 13 11 9 10 10 10 8 7 6 5 4 3 3 3 4 3 3 4 4 3 3 3 3 2 1 2 2
17 17 17 17 17 20 24 28 32 36 33 26 19 17 17 17 15 12 10 11 12 12 11 10 9 8 6 4 3 3 3 3 3 3 4 4 4 3 4 3 2 0 0
21 21 22 22 22 24 27 30 34 38 37 30 23 21 20 19 17 14 12 12 12 13 13 12 12 10 7 4 3 2 2 2 3 3 4 4 3 3 2 2 1 0 0
23 24 25 24 24 26 29 31 34 37 35 30 27 26 24 22 19 16 13 12 13 13 13 13 12 11 8 5 3 3 3 3 4 5 5 4 3 2 1 0 0 0 0
26 26 27 27 27 28 31 32 33 33 30 27 26 25 23 22 19 16 13 12 13 14 13 11 11 10 9 6 4 4 4 5 6 6 5 4 2 1 0 0 0 0 0
30 30 30 30 29 29 30 32 30 27 25 22 20 18 17 18 17 15 12 12 14 14 13 10 9 9 9 8 5 3 4 5 6 6 5 3 1 0 0 0 0 0 0
30 30 29 29 29 29 29 29 27 23 20 18 16 13 12 12 12 12 12 14 15 15 13 11 9 9 10 10 8 4 3 3 5 5 4 2 1 0 0 0 0 0 0
25 25 25 25 26 26 26 26 25 21 18 15 12 10 9 8 8 9 10 11 12 12 11 10 9 10 11 12 10 7 5 3 4 3 2 1 0 0 0 1 1 1 0
19 20 21 23 23 22 21 22 21 17 15 13 10 8 7 6 7 7 7 6 6 6 6 7 7 8 11 11 10 9 7 5 4 2 2 1 1 1 1 2 2 1 1
17 17 19 21 22 19 17 17 17 14 14 13 10 7 6 6 6 6 5 4 3 3 4 4 5 6 8 9 8 7 7 5 3 2 2 2 2 2 2 3 3 1 0

GEFSMW_con_probscp_276.txt.gz
Probability
7 6 6 6 5 4 3 2 2 2 2 1 1 2 2 2 2 1 1 1 1 0 0 1 3 5 4 3 1 1 1 1 1 1 1 0 0 0 0 0 0 0 0
6 6 5 5 4 4 2 2 3 3 3 2 2 2 1 1 1 0 0 0 0 0 0 0 2 4 4 3 2 2 2 2 1 2 1 0 0 0 0 0 0 0 0
6 6 5 4 4 3 2 1 3 4 4 4 3 3 2 1 1 1 1 1 1 0 0 0 1 3 4 4 3 3 4 3 2 2 2 0 0 0 0 0 0 0 0
7 6 5 5 5 5 2 2 3 4 5 4 4 5 4 3 3 3 3 2 2 1 0 0 1 3 4 3 2 3 4 4 3 3 2 1 1 0 0 0 0 1 1
9 7 5 5 6 6 5 4 5 5 5 5 6 6 6 4 4 5 4 3 3 2 2 2 2 3 3 2 1 2 3 4 4 3 3 3 2 1 1 0 0 0 0
10 8 7 7 8 8 8 8 8 8 7 7 8 8 7 7 6 6 4 3 3 3 3 3 3 3 2 1 0 1 2 4 4 4 4 4 3 3 2 2 1 0 0
9 8 8 9 10 10 10 9 10 9 9 9 9 9 8 8 8 6 5 4 4 4 4 3 3 3 2 1 1 1 2 3 3 4 4 3 2 2 3 3 2 0 0
7 7 8 10 12 12 10 10 10 10 10 10 10 10 8 8 8 7 6 6 6 4 3 3 3 4 3 2 2 2 2 3 3 3 3 3 2 2 2 2 1 0 0
6 6 7 10 11 11 9 8 10 11 11 10 9 10 10 10 10 10 9 8 7 5 3 2 2 3 3 3 3 4 4 4 4 4 4 5 4 4 4 4 4 3 3
5 6 7 8 9 9 9 8 9 11 11 9 8 8 10 13 13 11 10 9 8 6 4 2 2 3 3 3 4 5 6 6 6 5 6 7 6 7 8 9 9 9 8
4 4 5 5 7 10 12 13 11 11 11 9 6 6 9 12 12 10 9 8 8 7 5 4 3 3 3 4 5 5 6 7 6 5 5 5 6 7 10 11 12 12 13
5 6 6 7 10 14 18 18 16 13 11 9 7 7 9 10 11 10 9 8 7 7 6 5 4 3 3 3 4 4 5 6 5 4 4 4 4 6 9 10 12 13 14
8 9 13 16 17 19 22 22 20 15 12 10 9 9 9 9 9 9 8 7 7 7 7 6 4 3 3 3 4 4 5 6 5 4 4 4 4 6 8 9 10 12 13
11 14 21 25 24 24 26 25 22 18 15 13 13 12 11 10 9 8 7 7 7 8 9 8 5 3 3 3 4 5 6 6 5 5 5 5 5 6 7 7 8 9 11
20 22 26 30 30 30 31 29 24 21 21 21 20 19 16 13 11 8 7 7 7 8 8 8 6 5 3 3 4 4 5 5 5 5 5 5 5 5 5 5 5 7 9
28 30 32 33 34 34 34 34 30 28 28 28 26 24 21 17 12 9 7 6 7 7 8 8 8 7 5 3 3 3 3 4 5 6 6 5 4 4 4 3 2 3 6
32 35 38 37 36 37 38 39 39 37 34 31 28 27 23 19 14 11 9 8 9 11 11 11 10 9 7 4 3 3 4 5 6 7 7 6 5 5 5 5 3 3 5
34 37 40 39 37 38 40 43 44 42 37 33 31 28 25 21 18 17 16 15 16 18 18 16 14 11 9 5 3 4 5 6 7 8 8 8 7 7 9 10 9 9 10
34 36 38 39 39 40 41 44 46 43 40 38 36 33 30 28 26 25 24 24 25 24 23 21 17 13 11 7 4 5 8 10 11 13 13 12 11 10 11 13 14 14 15
33 33 35 39 42 42 42 46 49 48 46 44 42 39 37 36 34 32 30 30 29 26 23 20 17 15 13 9 5 6 12 15 17 19 19 15 12 9 9 13 15 15 15
30 32 36 41 44 44 46 49 52 52 49 46 42 41 40 39 38 36 35 33 30 26 22 19 17 17 16 12 7 7 13 18 20 21 20 16 10 6 6 9 12 12 11
28 32 37 41 45 46 48 50 50 49 45 41 38 39 39 38 38 37 36 34 31 26 23 20 20 20 18 14 8 5 8 14 18 19 18 13 7 3 2 4 6 7 6
31 34 36 39 43 45 47 48 46 44 40 37 36 37 37 37 36 35 33 30 27 23 20 19 20 19 16 12 8 5 4 7 11 13 13 9 4 2 2 2 2 3 5
38 37 36 38 41 43 44 45 45 43 40 37 36 35 35 34 34 33 29 26 22 18 15 15 16 14 10 7 7 6 5 5 7 9 9 7 5 5 6 6 5 6 7
41 39 37 37 39 40 39 38 40 42 41 38 35 33 32 31 30 28 24 20 16 12 10 11 12 9 6 4 5 5 5 6 7 8 9 10 10 10 11 11 10 10 10
41 39 36 35 37 37 35 34 36 39 40 38 34 31 30 29 27 24 18 13 10 8 7 8 8 6 4 3 3 3 4 5 6 7 9 12 13 13 13 13 13 13 12